ITY5FD LFPG-LIMC

Flight info

Callsign ITY5FD
Flight time N/A
Altitude 33000
Route OKASI DCT OKEKO DCT MOU DCT MADIV DCT MOKIP DCT TUFTA DCT GEVEA/N0470F290 DCT MOBLO DCT LURAG DCT TOP/N0402F190 M135 ASTIG
Aircraft A320/M-SDE3FGHIRWY/LB1

Departure

Time 2026-05-05 19:31
Airport Charles de Gaulle International Airport (LFPG)

Arrival

Time N/A
Airport Milan Malpensa International Airport (LIMC)
Time Latitude Longitude Altitude Speed Heading
2026-05-05 19:08 49.00193 2.56739 355 ft 0 kts 355°
2026-05-05 19:19 49.00190 2.56739 354 ft 3 kts 355°
2026-05-05 19:20 49.00164 2.56742 362 ft 4 kts 352°
2026-05-05 19:20 49.00138 2.56752 361 ft 4 kts 328°
2026-05-05 19:20 49.00123 2.56778 356 ft 4 kts 273°
2026-05-05 19:20 49.00123 2.56786 360 ft 0 kts 265°
2026-05-05 19:24 49.00122 2.56773 360 ft 0 kts 265°
2026-05-05 19:24 49.00120 2.56736 354 ft 6 kts 265°
2026-05-05 19:24 49.00118 2.56695 354 ft 3 kts 265°
2026-05-05 19:24 49.00111 2.56619 354 ft 12 kts 254°
2026-05-05 19:25 49.00040 2.56572 354 ft 13 kts 176°
2026-05-05 19:25 48.99936 2.56561 358 ft 13 kts 216°
2026-05-05 19:25 48.99911 2.56437 358 ft 14 kts 265°
2026-05-05 19:25 48.99905 2.56283 354 ft 16 kts 266°
2026-05-05 19:26 48.99895 2.56108 354 ft 17 kts 264°
2026-05-05 19:26 48.99835 2.56017 357 ft 11 kts 177°
2026-05-05 19:26 48.99778 2.56023 360 ft 6 kts 175°
2026-05-05 19:26 48.99743 2.56028 358 ft 6 kts 175°
2026-05-05 19:27 48.99706 2.56033 354 ft 0 kts 175°
2026-05-05 19:28 48.99667 2.56039 360 ft 14 kts 172°
2026-05-05 19:29 48.99616 2.56133 356 ft 9 kts 89°
2026-05-05 19:29 48.99616 2.56144 356 ft 0 kts 87°
2026-05-05 19:30 48.99622 2.56285 357 ft 44 kts 86°
2026-05-05 19:30 48.99666 2.57086 353 ft 105 kts 85°
2026-05-05 19:30 48.99740 2.58450 355 ft 152 kts 85°
2026-05-05 19:30 48.99822 2.60189 651 ft 167 kts 82°
2026-05-05 19:31 48.99910 2.61979 1288 ft 171 kts 81°
2026-05-05 19:31 49.00009 2.63819 1768 ft 183 kts 81°
2026-05-05 19:31 49.00130 2.65918 1946 ft 213 kts 82°
2026-05-05 19:31 49.00262 2.68267 2311 ft 238 kts 83°
2026-05-05 19:32 49.00402 2.70871 2940 ft 251 kts 83°
2026-05-05 19:32 49.00540 2.73556 3767 ft 256 kts 83°
2026-05-05 19:32 49.00680 2.76276 4604 ft 261 kts 84°
2026-05-05 19:32 49.00694 2.79066 5394 ft 267 kts 95°
2026-05-05 19:33 49.00438 2.81898 6180 ft 273 kts 98°
2026-05-05 19:33 49.00111 2.84785 6975 ft 277 kts 100°
2026-05-05 19:33 48.99766 2.87670 7786 ft 279 kts 101°
2026-05-05 19:33 48.99423 2.90601 8592 ft 282 kts 101°
2026-05-05 19:34 48.99093 2.93524 9391 ft 286 kts 102°
2026-05-05 19:34 48.98734 2.96528 10119 ft 290 kts 107°
2026-05-05 19:34 48.97797 2.99328 10346 ft 309 kts 133°
2026-05-05 19:35 48.93833 3.01819 11351 ft 324 kts 185°
2026-05-05 19:35 48.91680 3.00881 12070 ft 324 kts 209°
2026-05-05 19:35 48.89751 2.99147 12739 ft 329 kts 212°
2026-05-05 19:35 48.87787 2.97307 13465 ft 332 kts 213°
2026-05-05 19:36 48.85813 2.95436 14090 ft 335 kts 213°
2026-05-05 19:36 48.83825 2.93551 14734 ft 338 kts 212°
2026-05-05 19:36 48.81812 2.91648 15378 ft 340 kts 212°
2026-05-05 19:36 48.79796 2.89747 15995 ft 343 kts 212°
2026-05-05 19:37 48.77754 2.87831 16617 ft 346 kts 212°
2026-05-05 19:37 48.75695 2.85908 17226 ft 349 kts 211°
2026-05-05 19:37 48.74320 2.84627 17638 ft 351 kts 211°
2026-05-05 19:37 48.71299 2.82614 17916 ft 370 kts 191°
2026-05-05 19:38 48.68690 2.82548 18057 ft 386 kts 171°
2026-05-05 19:38 48.66037 2.83561 18255 ft 398 kts 165°
2026-05-05 19:38 48.64254 2.84313 18503 ft 402 kts 165°
2026-05-05 19:38 48.61541 2.85480 18945 ft 405 kts 165°
2026-05-05 19:39 48.58817 2.86660 19386 ft 408 kts 165°
2026-05-05 19:39 48.56073 2.87844 19828 ft 411 kts 164°
2026-05-05 19:39 48.53313 2.89022 20262 ft 414 kts 164°
2026-05-05 19:39 48.50512 2.90203 20693 ft 416 kts 164°
2026-05-05 19:40 48.47749 2.91362 21108 ft 419 kts 164°
2026-05-05 19:40 48.44944 2.92536 21515 ft 421 kts 164°
2026-05-05 19:40 48.42103 2.93725 21914 ft 423 kts 164°
2026-05-05 19:40 48.39261 2.94913 22290 ft 426 kts 164°
2026-05-05 19:41 48.36393 2.96113 22664 ft 428 kts 164°
2026-05-05 19:41 48.33517 2.97319 23029 ft 430 kts 163°
2026-05-05 19:41 48.30649 2.98519 23382 ft 433 kts 163°
2026-05-05 19:41 48.27736 2.99732 23681 ft 435 kts 163°
2026-05-05 19:42 48.24815 3.00943 24014 ft 435 kts 164°
2026-05-05 19:42 48.21888 3.02156 24324 ft 437 kts 164°
2026-05-05 19:42 48.18948 3.03376 24622 ft 438 kts 163°
2026-05-05 19:42 48.16008 3.04599 24925 ft 439 kts 164°
2026-05-05 19:43 48.13052 3.05826 25216 ft 440 kts 164°
2026-05-05 19:43 48.10097 3.07050 25489 ft 442 kts 164°
2026-05-05 19:43 48.07163 3.08262 25734 ft 443 kts 164°
2026-05-05 19:43 48.04186 3.09490 25989 ft 444 kts 164°
2026-05-05 19:44 48.01200 3.10723 26219 ft 446 kts 164°
2026-05-05 19:44 47.98203 3.11961 26450 ft 447 kts 164°
2026-05-05 19:44 47.95195 3.13201 26677 ft 449 kts 165°
2026-05-05 19:44 47.92185 3.14439 26981 ft 448 kts 165°
2026-05-05 19:45 47.89190 3.15669 27319 ft 446 kts 165°
2026-05-05 19:45 47.86193 3.16896 27619 ft 446 kts 165°
2026-05-05 19:45 47.83203 3.18121 27935 ft 445 kts 164°
2026-05-05 19:45 47.80212 3.19345 28262 ft 444 kts 164°
2026-05-05 19:46 47.77237 3.20560 28577 ft 443 kts 164°
2026-05-05 19:46 47.74256 3.21772 28920 ft 442 kts 164°
2026-05-05 19:46 47.71295 3.22975 29255 ft 441 kts 164°
2026-05-05 19:46 47.68374 3.24163 29583 ft 440 kts 164°
2026-05-05 19:47 47.65419 3.25364 29922 ft 440 kts 164°
2026-05-05 19:47 47.62461 3.26565 30189 ft 439 kts 164°
2026-05-05 19:47 47.59506 3.27766 30443 ft 439 kts 164°
2026-05-05 19:47 47.56589 3.28947 30705 ft 439 kts 165°
2026-05-05 19:48 47.53631 3.30138 30958 ft 438 kts 165°
2026-05-05 19:48 47.50683 3.31324 31213 ft 438 kts 165°
2026-05-05 19:48 47.47770 3.32498 31461 ft 438 kts 165°
2026-05-05 19:48 47.44826 3.33691 31709 ft 438 kts 165°
2026-05-05 19:49 47.41886 3.34885 31989 ft 437 kts 165°
2026-05-05 19:49 47.38947 3.36079 32254 ft 437 kts 165°
2026-05-05 19:49 47.36010 3.37266 32512 ft 437 kts 166°
2026-05-05 19:49 47.33076 3.38444 32764 ft 437 kts 166°
2026-05-05 19:50 47.30126 3.39621 32855 ft 440 kts 166°
2026-05-05 19:50 47.24193 3.41983 32868 ft 446 kts 166°
2026-05-05 19:51 47.18200 3.44382 32867 ft 447 kts 166°
2026-05-05 19:51 47.12176 3.46778 32870 ft 447 kts 166°
2026-05-05 19:52 47.06207 3.49149 32869 ft 446 kts 166°
2026-05-05 19:52 47.00199 3.51533 32870 ft 446 kts 166°
2026-05-05 19:53 46.94241 3.53896 32869 ft 446 kts 166°
2026-05-05 19:53 46.88249 3.56266 32870 ft 446 kts 166°
2026-05-05 19:54 46.82249 3.58628 32873 ft 445 kts 166°
2026-05-05 19:54 46.76352 3.61399 32876 ft 447 kts 155°
2026-05-05 19:54 46.73756 3.63814 32872 ft 451 kts 143°
2026-05-05 19:55 46.71515 3.67041 32869 ft 454 kts 131°
2026-05-05 19:55 46.69779 3.70917 32867 ft 459 kts 119°
2026-05-05 19:55 46.68632 3.75263 32866 ft 463 kts 107°
2026-05-05 19:56 46.67094 3.84343 32864 ft 464 kts 107°
2026-05-05 19:56 46.65540 3.93458 32865 ft 464 kts 107°
2026-05-05 19:57 46.63958 4.02586 32868 ft 465 kts 107°
2026-05-05 19:57 46.62366 4.11719 32856 ft 465 kts 107°
2026-05-05 19:58 46.60774 4.20850 32861 ft 465 kts 107°
2026-05-05 19:58 46.59183 4.29925 32865 ft 465 kts 107°
2026-05-05 19:59 46.57568 4.39078 32881 ft 469 kts 107°
2026-05-05 19:59 46.55929 4.48292 32880 ft 472 kts 108°
2026-05-05 20:00 46.54274 4.57569 32877 ft 473 kts 108°
2026-05-05 20:00 46.52626 4.66794 32880 ft 474 kts 108°
2026-05-05 20:01 46.50960 4.76063 32881 ft 473 kts 108°
2026-05-05 20:01 46.49296 4.85281 32865 ft 473 kts 108°
2026-05-05 20:02 46.47613 4.94518 32861 ft 474 kts 109°
2026-05-05 20:02 46.45912 5.03765 32860 ft 475 kts 109°
2026-05-05 20:03 46.44209 5.13022 32858 ft 475 kts 109°
2026-05-05 20:03 46.42521 5.22246 32861 ft 475 kts 109°
2026-05-05 20:04 46.40807 5.31523 32850 ft 476 kts 109°
2026-05-05 20:04 46.39073 5.40802 32862 ft 477 kts 109°
2026-05-05 20:05 46.37352 5.50027 32870 ft 478 kts 109°
2026-05-05 20:05 46.35621 5.59326 32876 ft 478 kts 109°
2026-05-05 20:06 46.33884 5.68633 32885 ft 480 kts 110°
2026-05-05 20:06 46.32135 5.77917 32890 ft 481 kts 110°
2026-05-05 20:07 46.30363 5.87247 32902 ft 481 kts 110°
2026-05-05 20:07 46.28586 5.96571 32904 ft 480 kts 110°
2026-05-05 20:08 46.26786 6.05841 32880 ft 479 kts 113°
2026-05-05 20:08 46.23862 6.14346 32889 ft 467 kts 131°
2026-05-05 20:09 46.19504 6.21126 32886 ft 458 kts 143°
2026-05-05 20:09 46.14855 6.27359 32892 ft 459 kts 143°
2026-05-05 20:10 46.10165 6.33620 32899 ft 459 kts 143°
2026-05-05 20:10 46.05465 6.39871 32914 ft 461 kts 143°
2026-05-05 20:11 46.00753 6.46132 32920 ft 462 kts 143°
2026-05-05 20:11 45.96040 6.52382 32907 ft 462 kts 144°
2026-05-05 20:12 45.91294 6.58654 32916 ft 462 kts 144°
2026-05-05 20:12 45.86576 6.64891 32923 ft 462 kts 144°
2026-05-05 20:13 45.81867 6.71087 32905 ft 462 kts 144°
2026-05-05 20:13 45.77114 6.77311 32920 ft 462 kts 144°
2026-05-05 20:14 45.72345 6.83521 32931 ft 462 kts 145°
2026-05-05 20:14 45.67625 6.89666 32936 ft 462 kts 145°
2026-05-05 20:15 45.62871 6.95841 32948 ft 462 kts 145°
2026-05-05 20:15 45.58110 7.02002 32933 ft 459 kts 145°
2026-05-05 20:16 45.53360 7.08141 32940 ft 461 kts 146°
2026-05-05 20:16 45.48605 7.14285 32948 ft 461 kts 146°
2026-05-05 20:17 45.43884 7.20425 32966 ft 461 kts 145°
2026-05-05 20:17 45.39146 7.26567 32969 ft 461 kts 146°
2026-05-05 20:18 45.34389 7.32725 32976 ft 461 kts 146°
2026-05-05 20:18 45.29633 7.38864 32761 ft 456 kts 146°
2026-05-05 20:18 45.27306 7.41871 31161 ft 453 kts 145°
2026-05-05 20:19 45.24986 7.44850 29374 ft 457 kts 144°
2026-05-05 20:19 45.22614 7.47885 27252 ft 459 kts 144°
2026-05-05 20:19 45.20231 7.50932 25184 ft 462 kts 143°
2026-05-05 20:19 45.17840 7.53987 23348 ft 461 kts 142°
2026-05-05 20:20 45.15475 7.57008 21914 ft 450 kts 142°
2026-05-05 20:20 45.13228 7.59890 21536 ft 419 kts 142°
2026-05-05 20:20 45.11148 7.62573 21345 ft 390 kts 143°
2026-05-05 20:20 45.09231 7.65040 21214 ft 363 kts 143°
2026-05-05 20:21 45.07422 7.67360 21036 ft 340 kts 144°
2026-05-05 20:21 45.05698 7.69555 20507 ft 329 kts 144°
2026-05-05 20:21 45.03998 7.71699 19851 ft 324 kts 144°
2026-05-05 20:21 45.02321 7.73810 19186 ft 321 kts 144°
2026-05-05 20:22 45.00658 7.75904 18546 ft 318 kts 144°
2026-05-05 20:22 44.99016 7.77976 17857 ft 316 kts 144°
2026-05-05 20:22 44.97410 7.80097 17149 ft 316 kts 139°
2026-05-05 20:22 44.96003 7.82484 16463 ft 318 kts 130°
2026-05-05 20:23 44.94833 7.85145 15802 ft 319 kts 122°
2026-05-05 20:23 44.93931 7.88014 15172 ft 321 kts 114°
2026-05-05 20:23 44.93317 7.91041 14565 ft 321 kts 105°
2026-05-05 20:23 44.93005 7.94127 14106 ft 321 kts 96°
2026-05-05 20:24 44.92995 7.97308 13969 ft 324 kts 89°
2026-05-05 20:24 44.93125 8.00482 13980 ft 325 kts 89°
2026-05-05 20:24 44.93247 8.03680 13973 ft 326 kts 90°
2026-05-05 20:24 44.93367 8.06876 13984 ft 326 kts 90°
2026-05-05 20:25 44.93485 8.10097 13984 ft 326 kts 90°
2026-05-05 20:25 44.93600 8.13277 13983 ft 326 kts 90°
2026-05-05 20:25 44.93712 8.16430 13983 ft 326 kts 90°
2026-05-05 20:25 44.93825 8.19635 13982 ft 326 kts 90°
2026-05-05 20:26 44.93941 8.22845 13978 ft 326 kts 90°
2026-05-05 20:26 44.94059 8.26048 13983 ft 326 kts 90°
2026-05-05 20:26 44.94137 8.28162 13980 ft 326 kts 90°
2026-05-05 20:26 44.94473 8.31331 13972 ft 329 kts 73°
2026-05-05 20:27 44.96050 8.34912 13975 ft 320 kts 42°
2026-05-05 20:27 44.97853 8.36586 13967 ft 303 kts 19°
2026-05-05 20:27 44.99203 8.37151 13975 ft 293 kts
2026-05-05 20:27 45.01211 8.37180 13977 ft 284 kts 345°
2026-05-05 20:28 45.03023 8.36351 13971 ft 277 kts 327°
2026-05-05 20:28 45.04557 8.34772 13976 ft 269 kts 308°
2026-05-05 20:28 45.05650 8.32667 13979 ft 263 kts 291°
2026-05-05 20:28 45.06241 8.30272 13983 ft 257 kts 275°
2026-05-05 20:29 45.06380 8.27772 13987 ft 254 kts 267°
2026-05-05 20:29 45.06348 8.25278 13979 ft 254 kts 264°
2026-05-05 20:29 45.06256 8.22785 13985 ft 253 kts 263°
2026-05-05 20:29 45.06149 8.20294 13976 ft 253 kts 263°
2026-05-05 20:30 45.06049 8.17835 13986 ft 253 kts 264°
2026-05-05 20:30 45.05951 8.15347 13987 ft 253 kts 261°
2026-05-05 20:30 45.05572 8.12935 13984 ft 250 kts 247°
2026-05-05 20:30 45.04757 8.10786 13984 ft 248 kts 232°
2026-05-05 20:31 45.03548 8.09052 13979 ft 248 kts 217°
2026-05-05 20:31 45.02037 8.07863 13988 ft 251 kts 202°
2026-05-05 20:31 45.00330 8.07318 13988 ft 254 kts 187°
2026-05-05 20:31 44.98552 8.07489 13973 ft 259 kts 171°
2026-05-05 20:32 44.96852 8.08411 13982 ft 266 kts 154°
2026-05-05 20:32 44.95390 8.10047 13990 ft 273 kts 136°
2026-05-05 20:32 44.94328 8.12298 13985 ft 280 kts 118°
2026-05-05 20:32 44.93808 8.14923 13985 ft 286 kts 98°
2026-05-05 20:33 44.93879 8.17757 13974 ft 290 kts 87°
2026-05-05 20:33 44.94020 8.20597 13984 ft 290 kts 90°
2026-05-05 20:33 44.94096 8.23448 13984 ft 290 kts 91°
2026-05-05 20:33 44.94151 8.26296 13984 ft 290 kts 91°
2026-05-05 20:34 44.94212 8.29154 13969 ft 290 kts 89°
2026-05-05 20:34 44.94721 8.31908 13971 ft 294 kts 62°
2026-05-05 20:34 44.96010 8.34119 13983 ft 294 kts 35°
2026-05-05 20:34 44.97802 8.35349 13984 ft 290 kts
2026-05-05 20:35 44.99786 8.35447 13976 ft 283 kts 344°
2026-05-05 20:35 45.01583 8.34454 13975 ft 274 kts 320°
2026-05-05 20:35 45.02932 8.32611 13972 ft 265 kts 298°
2026-05-05 20:35 45.03657 8.30278 13979 ft 257 kts 277°
2026-05-05 20:36 45.03804 8.27800 13988 ft 254 kts 266°
2026-05-05 20:36 45.03768 8.25313 13975 ft 254 kts 264°
2026-05-05 20:36 45.03677 8.22816 13986 ft 254 kts 263°
2026-05-05 20:36 45.03575 8.20321 13986 ft 254 kts 263°
2026-05-05 20:37 45.03478 8.17824 13984 ft 254 kts 264°
2026-05-05 20:37 45.03227 8.15409 13987 ft 250 kts 249°
2026-05-05 20:37 45.02430 8.13240 13982 ft 248 kts 230°
2026-05-05 20:37 45.01149 8.11616 13983 ft 249 kts 211°
2026-05-05 20:38 44.99538 8.10727 13983 ft 252 kts 192°
2026-05-05 20:38 44.97772 8.10715 13982 ft 258 kts 172°
2026-05-05 20:38 44.96083 8.11639 13985 ft 266 kts 151°
2026-05-05 20:38 44.94721 8.13446 13971 ft 275 kts 128°
2026-05-05 20:39 44.93936 8.15946 13980 ft 284 kts 104°
2026-05-05 20:39 44.93813 8.18716 13987 ft 289 kts 92°
2026-05-05 20:39 44.93865 8.21554 13975 ft 290 kts 90°
2026-05-05 20:39 44.93962 8.24406 13985 ft 290 kts 90°